x

Matinicus Rock, Me (mism1) Weather Station

10:00 - Fri 24th Mar 2017 All times are EDT. -4 hours from GMT.

  • Wind
    23mph, 24mph gusts
  • Air Temp 32°f
  • Sea Pressure 1030.3mb
  • Matinicus Rock, Me
  • Matinicus Rock, Me

More Historic Weather Station data

Upgrade to MSW Pro to gain access to the past 30 days of data for over 8000 Wavebouys and Weather Stations around the globe.

Join Pro

Comparision Forecast

View Surf forecast
   
ven. 03/24 10:00 23 24 mph 1030.3mb 32f
9:00 21 23 mph 1031.3mb 32f
8:00 16 18 mph 1031.2mb 31f
7:00 9 10 mph 1031.8mb 30f
6:00 5 8 mph 1031.9mb 29f
5:00 6 8 mph 1032.2mb 29f
4:00 6 7 mph 1031.7mb 29f
3:00 7 10 mph 1032mb 28f
2:00 11 14 mph 1032.6mb 28f
1:00 10 11 mph 1032.3mb 27f
12:00 15 17 mph 1032.2mb 27f
jeu. 03/23 11:00 20 22 mph 1031.8mb 28f
10:00 22 25 mph 1031.4mb 28f
9:00 28 30 mph 1030.8mb 29f
8:00 24 26 mph 1029.2mb 30f
7:00 24 29 mph 1027.7mb 30f
6:00 32 34 mph 1026.8mb 31f
5:00 22 25 mph 1026.5mb 30f
4:00 25 28 mph 1026.1mb 29f
3:00 24 26 mph 1025.7mb 28f
2:00 22 24 mph 1025.7mb 26f
1:00 26 30 mph 1026.3mb 24f
12:00 29 32 mph 1026.6mb 22f
11:00 22 26 mph 1027mb 19f
10:00 28 30 mph 1026.7mb 18f
9:00 34 38 mph 1026.6mb 17f
8:00 31 34 mph 1026.5mb 17f
7:00 34 38 mph 1025.4mb 15f
6:00 36 40 mph 1024.3mb 16f
5:00 37 39 mph 1023.3mb 16f
4:00 38 44 mph 1022.6mb 17f
3:00 41 49 mph 1021.8mb 17f
2:00 44 49 mph 1021.3mb 18f
1:00 45 49 mph 1020.6mb 18f
12:00 41 47 mph 1020mb 18f
mer. 03/22 11:00 45 54 mph 1019.3mb 18f
10:00 44 53 mph 1018.4mb 18f
9:00 45 52 mph 1017.4mb 19f
8:00 44 49 mph 1016mb 20f
7:00 44 48 mph 1014.6mb 20f
6:00 44 47 mph 1013mb 21f
5:00 45 51 mph 1011.2mb 22f
4:00 32 34 mph 1010.4mb 23f
3:00 39 44 mph 1009.5mb 23f
2:00 38 41 mph 1008.6mb 24f
1:00 33 38 mph 1008mb 24f
12:00 36 40 mph 1007.2mb 25f
11:00 39 43 mph 1006mb 26f
10:00 43 47 mph 1004.3mb 30f
9:00 6
mph
1003.9mb 38f
8:00 9
mph
1003.7mb 39f
7:00 7
mph
1004mb 38f
6:00 6
mph
1004.2mb 38f
5:00 14 15 mph 1004.5mb 38f
4:00 13 14 mph 1004.6mb 38f
3:00 9 10 mph 1005.2mb 38f
2:00 3 6 mph 1005.6mb 38f
1:00 7
mph
1006.1mb 38f
12:00 6 7 mph 1006.7mb 39f
mar. 03/21 11:00 11
mph
1006.8mb 39f
10:00 14 15 mph 1007.4mb 40f
9:00 11 13 mph 1007.6mb 40f
8:00 9
mph
1007.4mb 40f
7:00 10 11 mph 1007.5mb 40f
6:00 11
mph
1007.4mb 40f
5:00 13 14 mph 1007.4mb 40f
4:00 15
mph
1007.4mb 40f
3:00 13
mph
1007.4mb 40f
2:00 10
mph
1008mb 40f
1:00 10 11 mph 1008.7mb 39f
12:00 8 9 mph 1009.2mb 39f
11:00 10
mph
1009.7mb 38f
10:00 14 15 mph 1009.9mb 37f
9:00 11 13 mph 1009.4mb 37f
8:00 7 8 mph 1009.4mb 37f
7:00 7 8 mph 1009.2mb 37f
6:00 10 11 mph 1009.6mb 37f
5:00 7 8 mph 1009.3mb 37f
4:00 7
mph
1009.3mb 37f
3:00 7
mph
1009.5mb 37f
2:00 9 10 mph 1010mb 38f
1:00 14
mph
1010.1mb 39f
12:00 14 15 mph 1010mb 39f
lun. 03/20 11:00 11 13 mph 1010.7mb 39f
10:00 13
mph
1011.2mb 40f
9:00 11
mph
1012.1mb 41f
8:00 18 20 mph 1012.1mb 43f
7:00 18 20 mph 1011.9mb 42f
6:00 20 21 mph 1011.4mb 43f
5:00 18 20 mph 1011.6mb 43f
4:00 18 21 mph 1011.9mb 42f